ATLAS 5 CENTAUR DEB, 43983

Orbit data source: Space-Track

ATLAS 5 CENTAUR DEB, 43983 is space debris in HEO originally from a launch on Wed, 17 Sep 2014 UTC launched from the Air Force Eastern Test Range (AFETR). Debris objects in space refer to the collection of defunct objects orbiting the Earth. Examples of debris include non-operational satellites, rocket bodies, and fragments generated from explosions, collisions, or faulty payload assembly.

Loading next visibility...
Identifier
43983, 2014-055AN
Orbit
HEO
Country
Flag of USUS
Related business
Flag of USUnited Launch Alliance/Lockheed Martin (US)
Manufacturer
Unknown
Mission
Spacecraft
Bus & Motor
Unknown
Mass
Unknown
Launch date (UTC)
2014-09-17 (12 years ago)
Launch vehicle
Unknown
Launch site
Air Force Eastern Test Range (AFETR)
Object type
Payload
Rocket body
Debris
Shape & HBR
Unknown shape, 1.1 m
Radar Cross Section
Medium (>0.1 m² and <1 m²)

Expand to show TLE details & history
Last TLE update: 18 hours ago

TLE from 18 hours ago
0 ATLAS 5 CENTAUR DEB
1 43983U 14055AN  26199.49061352 -.00000109  00000-0  00000+0 0  9999
2 43983  20.7867 113.4115 4875874 218.7959  93.4316  1.90079065 54595
Epoch: 2026-07-18T11:46Z
TLE epoch observation values (Epoch: 2026-07-18T11:46:29.008Z)
Latitude
0.00005°
Longitude
0.50247°
Altitude
27,503.895 km
Speed
3.008 km/s
True Right ascension
07h 33m 42s
True Declination
0° 00' 00"
Sunlit
Object was in daylight at epoch
Visualization orbit readout
Latitude
Unknown
Longitude
Unknown
Altitude
Unknown
Speed
Unknown
Apparent Right ascension
Unknown
Apparent Declination
Unknown
Sunlit
N/A
Visualization observer readout
Local Sidereal Time
19:04:06
Azimuth
Unknown
Elevation
Unknown
Doppler factor
Unknown
Orbital elements
Apogee altitude
34,575.502 km
Perigee altitude
7,728.705 km
Semi-major axis
27,530.241 km
Eccentricity
0.48759
Inclination
20.7867°
RAAN
113.4115°
Arg. of periapsis
218.7959°
True anomaly
141.20649°
Mean anomaly
93.4316°
Eccentric anomaly
118.07992°
Mean motion
0.47515 °/min
Orbital period
757.66 mins
BSTAR
0
Loading maneuver chart data...
Computing Atmospheric mass density...

Documentation

Showing up to 5 results
|